"Pseudo-MPEC" for C0GV6V5
Created 2023 Mar 20 23:22:06 UT using Find_Orb
Click here for an explanation of pseudo-MPECs
Astrometry: C0GV6V5* C2023 03 18Fi.6KIrZL8O(#2(S^x2:f%@,%jSMBwM1`c\/6p[NFQ2_pyq0?Q(`
V00 C0GV6V5 C2023 03 187b*D5LBc]\skjEjxPy5sxa]ql@1)(MqhI4+oSPeC10g/;j.*=`kT
V00 C0GV6V5 C2023 03 18X]
AstrometrytC@V_HN(q.W1aaQ_raL\pj-g+RB=j`0s2!(*qj;)
V00 C0GV6V5 C2023 03 18+VZD)uKeRA/9c:E+15Grtr2OTpGxe*)BNKmyjEty8]n^B%sjQs#`
V00 C0GV6V5 mC2023 03 19nWVoUBy9qACdt30n2H,Z`N`Zr7-
redacted;koG9L$.\aurXp;Bj
V00 C0GV6V5 mC2023 03 19N,^`/DAoM[)yL7jA^]Hk
click*pRYhdO)a?WmWrVVmL](/\T'P9d
V00 C0GV6V5 mC2023 03 19xU0\on'xRh=c5N5l^(rAd'Xs(9IA#GP3]VPR%1PWSG@hOV448,/#
V00 C0GV6V5 mC2023 03 204AvpZE78Fg%)x/[#@eZ
hereM2Ta0PO#79KZVuoU2-US2^Qvs
forT
V00 C0GV6V5 mC2023 03 20^hDpC`1-ja0'j,4')Umj0G
explanationWHRSAaIYOm)L-;4xVxY
V00 C0GV6V5 mC2023 03 200ifDiG(y;L/b)X:\SU`3+-1;1EmgDLwg8v0`X/U*?=hQ1$*gd=Lr
V00 C0GV6V5 mC2023 03 2047gE7Zg5,y:29LBn1;1ylv#v=Bnin([['r;n-G3/F'u_TqS?2XoA
V00 Station data: (V00) Kitt Peak-Bok (N31.963125 W111.600190) US/Arizona. Observers T. A. Pruyne, B. M. Africano, E. J. Christensen, G. A. Farneth, D. C. Fuls, A. R. Gibbs, A. D. Grauer, H. Gröller, J. A. Johnson, R. A. Kowalski, S. M. Larson, G. J. Leonard, D. Rankin, R. L. Seaman, F. C. Shelly, K. W. Wierzchoś. 2.25-m reflector + CCD. Orbital elements: C0GV6V5 Perihelion 2024 Jun 15.07508 +/- 320 TT = 1:48:06 (JD 2460476.57508) Epoch 2023 Mar 20.0 TT = JDT 2460023.5 Earth MOID: 0.6323 AutoNEOCP M 182.33833321 +/- 53 (J2000 ecliptic) n 0.39212411 +/- 0.0166 Peri. 229.13705 +/- 35 a 1.84864567 +/- 0.0522 Node 129.05303 +/- 5.6 e 0.1346121 +/- 0.0583 Incl. 21.49074 +/- 2.7 P 2.51/918.06d H 19.71 G 0.15 U 10.2 SR q 1.59979555 +/- 0.0758 Q 2.09749579 +/- 0.166 From 11 observations 2023 Mar. 18-20; mean residual 0".26
Residuals in arcseconds: 230318 V00 .25+ .11- 230319 V00 .20+ .09+ 230320 V00 .06- .21- 230318 V00 .17+ .23- 230319 V00 .05- .46+ 230320 V00 .02- .10- 230318 V00 .03+ .28- 230319 V00 .82- .44+ 230320 V00 .18+ .04+ 230318 V00 .05- .03+ 230320 V00 .16+ .12- Ephemerides (geocentric): Date (UTC) HH RA Dec delta r elong mag " sig PA ---- -------- ------------ ------------ ------ ------ ----- --- -------- 2023 03 20 23 12 41 35.038 +29 03 26.16 1.1783 2.0973 149.3 22.5 2.77 61 2023 03 21 00 12 41 32.392 +29 04 03.55 1.1783 2.0973 149.3 22.5 3.00 61 2023 03 21 01 12 41 29.745 +29 04 40.89 1.1784 2.0973 149.3 22.5 3.24 61 2023 03 21 02 12 41 27.097 +29 05 18.19 1.1784 2.0973 149.3 22.5 3.49 62 2023 03 21 03 12 41 24.447 +29 05 55.44 1.1785 2.0973 149.3 22.5 3.74 62 2023 03 21 04 12 41 21.796 +29 06 32.64 1.1785 2.0973 149.3 22.5 4.00 62 2023 03 21 05 12 41 19.143 +29 07 09.81 1.1785 2.0973 149.3 22.5 4.26 62 2023 03 21 06 12 41 16.488 +29 07 46.92 1.1786 2.0973 149.2 22.5 4.53 62 2023 03 21 07 12 41 13.832 +29 08 24.00 1.1786 2.0973 149.2 22.5 4.81 62 2023 03 21 08 12 41 11.175 +29 09 01.02 1.1787 2.0973 149.2 22.5 5.09 62 2023 03 21 09 12 41 08.516 +29 09 38.01 1.1787 2.0973 149.2 22.5 5.38 63 2023 03 21 10 12 41 05.856 +29 10 14.95 1.1787 2.0972 149.2 22.5 5.67 63 2023 03 21 11 12 41 03.194 +29 10 51.84 1.1788 2.0972 149.2 22.5 5.97 63 2023 03 21 12 12 41 00.531 +29 11 28.69 1.1788 2.0972 149.2 22.5 6.28 63 2023 03 21 13 12 40 57.867 +29 12 05.49 1.1789 2.0972 149.2 22.5 6.59 63 2023 03 21 14 12 40 55.201 +29 12 42.25 1.1789 2.0972 149.2 22.5 6.91 63 2023 03 21 15 12 40 52.533 +29 13 18.96 1.1789 2.0972 149.1 22.5 7.24 63 2023 03 21 16 12 40 49.864 +29 13 55.63 1.1790 2.0972 149.1 22.5 7.57 63 2023 03 21 17 12 40 47.194 +29 14 32.25 1.1790 2.0972 149.1 22.5 7.91 63 2023 03 21 18 12 40 44.523 +29 15 08.83 1.1791 2.0972 149.1 22.5 8.26 63 2023 03 21 19 12 40 41.850 +29 15 45.36 1.1791 2.0972 149.1 22.5 8.61 63 2023 03 21 20 12 40 39.175 +29 16 21.85 1.1792 2.0972 149.1 22.5 8.96 63 2023 03 21 21 12 40 36.500 +29 16 58.29 1.1792 2.0972 149.1 22.5 9.33 63 2023 03 21 22 12 40 33.823 +29 17 34.68 1.1793 2.0972 149.1 22.5 9.70 63 2023 03 21 23 12 40 31.144 +29 18 11.03 1.1793 2.0972 149.1 22.5 10.1 63 2023 03 22 00 12 40 28.465 +29 18 47.33 1.1793 2.0972 149.0 22.5 10.5 63 2023 03 22 01 12 40 25.784 +29 19 23.59 1.1794 2.0972 149.0 22.5 10.8 63 2023 03 22 02 12 40 23.101 +29 19 59.80 1.1794 2.0972 149.0 22.5 11.2 63 2023 03 22 03 12 40 20.418 +29 20 35.96 1.1795 2.0972 149.0 22.5 11.6 63 2023 03 22 04 12 40 17.733 +29 21 12.08 1.1795 2.0972 149.0 22.5 12.0 63 2023 03 22 05 12 40 15.046 +29 21 48.15 1.1796 2.0972 149.0 22.5 12.5 63 2023 03 22 06 12 40 12.359 +29 22 24.18 1.1796 2.0972 149.0 22.5 12.9 63 2023 03 22 07 12 40 09.670 +29 23 00.16 1.1797 2.0972 149.0 22.5 13.3 64 2023 03 22 08 12 40 06.980 +29 23 36.09 1.1797 2.0972 148.9 22.5 13.7 64 2023 03 22 09 12 40 04.288 +29 24 11.98 1.1798 2.0972 148.9 22.5 14.2 64 2023 03 22 10 12 40 01.596 +29 24 47.82 1.1798 2.0972 148.9 22.5 14.6 64 2023 03 22 11 12 39 58.902 +29 25 23.62 1.1799 2.0972 148.9 22.5 15.1 64 2023 03 22 12 12 39 56.207 +29 25 59.36 1.1799 2.0972 148.9 22.5 15.5 64 2023 03 22 13 12 39 53.510 +29 26 35.07 1.1800 2.0972 148.9 22.5 16.0 64 2023 03 22 14 12 39 50.813 +29 27 10.72 1.1800 2.0972 148.9 22.5 16.5 64 2023 03 22 15 12 39 48.114 +29 27 46.33 1.1801 2.0972 148.9 22.5 16.9 64 2023 03 22 16 12 39 45.414 +29 28 21.89 1.1801 2.0972 148.8 22.5 17.4 64 2023 03 22 17 12 39 42.712 +29 28 57.40 1.1802 2.0972 148.8 22.5 17.9 64 2023 03 22 18 12 39 40.010 +29 29 32.87 1.1802 2.0972 148.8 22.5 18.4 64 2023 03 22 19 12 39 37.306 +29 30 08.29 1.1803 2.0971 148.8 22.5 18.9 64 2023 03 22 20 12 39 34.601 +29 30 43.66 1.1804 2.0971 148.8 22.5 19.4 64 2023 03 22 21 12 39 31.895 +29 31 18.99 1.1804 2.0971 148.8 22.5 19.9 64 2023 03 22 22 12 39 29.188 +29 31 54.27 1.1805 2.0971 148.8 22.5 20.4 64